Date,TemperatureHighF,TemperatureAvgF,TemperatureLowF,DewpointHighF,DewpointAvgF,DewpointLowF,HumidityHigh,HumidityAvg,HumidityLow,PressureMaxIn,PressureMinIn,WindSpeedMaxMPH,WindSpeedAvgMPH,GustSpeedMaxMPH,PrecipitationSumIn
2013-12-1,72.0,54.2,38.4,53.0,46.0,36.2,94,76,45,30.28,29.99,9,0,10,0.00
2013-12-2,76.1,64.4,56.2,65.2,59.9,52.6,97,86,66,30.01,29.75,10,0,16,0.00
2013-12-3,79.1,69.0,61.0,68.9,65.4,60.1,99,89,67,29.79,29.71,10,1,18,0.00
2013-12-4,78.3,72.0,68.7,72.5,69.8,67.7,98,93,81,29.91,29.79,10,0,12,0.00
2013-12-5,79.2,73.7,70.4,72.9,71.1,69.4,98,92,78,29.99,29.88,10,1,10,0.00
2013-12-6,72.5,48.0,39.4,71.5,46.1,36.1,97,93,88,30.28,29.93,13,2,14,0.08
2013-12-7,39.4,36.6,34.5,36.4,34.0,31.8,95,90,86,30.36,30.26,13,1,14,0.00
2013-12-8,43.7,39.7,36.0,42.8,38.7,34.7,97,96,95,30.26,30.05,5,0,6,1.06
2013-12-9,48.5,45.0,39.5,46.0,43.6,38.1,97,95,90,30.20,30.07,11,1,14,0.01
2013-12-10,49.9,41.4,36.7,38.2,35.7,32.5,95,81,63,30.40,30.20,15,2,18,0.00
2013-12-11,49.9,43.6,35.5,42.1,37.6,32.5,92,80,70,30.46,30.34,6,0,10,0.00
2013-12-12,55.9,45.0,37.3,38.8,35.6,33.4,88,71,49,30.54,30.36,6,0,9,0.00
2013-12-13,64.7,50.5,37.7,60.3,43.2,30.4,89,76,68,30.36,29.90,6,0,11,0.00
2013-12-14,66.3,59.7,48.2,63.9,56.4,42.9,97,89,81,30.16,29.83,14,1,17,0.70
2013-12-15,54.1,45.4,37.4,42.8,37.7,34.4,92,75,57,30.33,30.16,14,1,14,0.00
2013-12-16,61.9,45.2,32.9,42.0,37.1,31.3,95,77,39,30.37,30.25,3,0,3,0.00
2013-12-17,67.0,48.7,35.0,48.8,40.6,33.4,95,77,39,30.36,30.25,5,0,6,0.00
2013-12-18,67.7,51.5,39.6,52.9,43.6,38.5,98,78,43,30.37,30.21,4,0,9,0.00
2013-12-19,73.7,62.4,45.8,63.3,56.0,43.6,93,81,56,30.20,29.99,11,1,16,0.00
2013-12-20,76.4,69.8,65.0,69.5,66.7,62.6,95,90,79,30.02,29.90,14,2,17,0.00
2013-12-21,74.0,70.3,64.2,70.5,68.2,62.8,96,93,88,29.90,29.68,14,2,16,0.33
2013-12-22,67.0,61.5,47.2,63.6,57.4,41.6,97,87,64,30.25,29.83,11,1,12,0.09
2013-12-23,52.1,43.4,36.2,41.7,35.3,30.9,83,74,55,30.52,30.21,12,2,15,0.00
2013-12-24,54.7,41.4,30.7,36.4,32.6,28.3,92,73,47,30.57,30.36,9,0,9,0.00
2013-12-25,51.9,41.5,33.1,36.2,31.9,27.7,89,70,41,30.42,30.32,5,0,6,0.00
2013-12-26,61.4,47.8,35.9,39.3,34.9,29.7,86,63,37,30.42,30.29,6,0,6,0.00
2013-12-27,55.7,49.5,45.0,38.7,37.2,35.0,75,63,46,30.45,30.30,6,0,7,0.00
2013-12-28,48.9,46.4,43.9,46.7,43.6,37.8,96,90,67,30.31,30.02,6,0,7,0.59
2013-12-29,65.0,49.1,37.0,47.6,40.9,35.9,97,77,39,30.15,30.03,5,0,5,0.00
2013-12-30,53.6,48.0,43.9,47.2,43.6,40.5,90,85,78,30.37,30.13,6,0,6,0.00
2013-12-31,46.1,43.6,40.2,41.1,38.2,35.6,87,81,75,30.45,30.30,7,0,7,0.00